Probability
0 0 0 0 0 0 0 0 0 0 0 0 0 0 0 0 0 0 0 0 0 0 0 0 0 0 0 0 0 0 0 1 2 3 3 3 1 0 0 0 0 0 0 0
0 0 0 0 0 0 0 0 0 0 0 0 0 0 0 0 0 0 0 0 0 0 0 0 0 0 0 0 0 0 0 1 2 3 3 3 2 1 0 0 0 0 0 0
0 0 0 0 0 0 0 0 0 0 0 0 0 0 0 0 0 0 0 0 0 0 0 0 0 0 0 0 0 0 0 1 3 4 4 3 3 2 1 0 0 0 0 0
0 0 0 0 0 0 0 0 0 0 0 0 0 0 0 0 0 0 0 0 0 0 0 0 0 0 0 0 1 1 1 2 4 6 5 4 3 3 1 0 0 0 0 0
0 0 0 0 0 0 0 0 0 0 0 0 0 0 0 0 0 0 0 0 0 0 0 0 0 0 0 0 1 2 2 2 3 5 5 4 4 3 2 1 0 0 0 0
0 0 0 0 0 0 0 0 0 0 0 0 0 0 0 0 0 0 0 0 0 0 0 0 0 0 0 0 1 3 3 3 2 2 4 5 5 4 3 1 0 0 0 0
0 0 0 0 0 0 0 0 0 0 0 0 0 0 0 0 0 0 0 0 0 0 0 0 0 0 0 0 1 2 3 3 3 3 3 4 4 5 4 2 1 0 0 0
0 0 0 0 0 0 0 0 0 0 0 0 0 0 0 0 0 0 0 0 0 0 0 0 0 0 0 0 1 2 3 3 4 4 3 3 3 4 4 3 1 0 0 0
0 0 0 0 0 0 0 0 0 0 0 0 0 0 0 0 0 0 0 0 0 0 0 0 0 0 0 0 0 1 2 3 4 5 4 3 2 2 3 3 2 1 0 0
0 0 0 0 0 0 0 0 0 0 0 0 0 0 0 0 0 0 0 0 0 0 0 0 0 0 0 0 0 0 1 1 3 4 4 2 1 1 2 3 2 1 0 0
0 0 0 0 0 0 0 0 0 0 0 0 0 0 0 0 0 0 0 0 0 0 0 0 0 0 0 0 0 0 0 0 1 2 2 2 1 0 1 1 2 2 1 0
0 0 0 0 0 0 0 0 0 0 0 0 0 0 0 0 0 0 0 0 0 0 0 0 0 0 0 0 0 0 0 0 0 0 1 1 0 0 0 0 1 2 1 1
0 0 0 0 0 0 0 0 0 0 0 0 0 0 0 0 0 0 0 0 0 0 0 0 0 0 0 0 0 0 0 0 0 0 0 0 0 0 0 0 0 1 1 0
0 0 0 0 0 0 0 0 0 0 0 0 0 0 0 0 0 0 0 0 0 0 0 0 0 0 0 0 0 0 0 0 0 0 0 0 0 0 0 0 0 0 0 0
0 0 0 0 0 0 0 0 0 0 0 0 0 0 0 0 0 0 0 0 0 0 0 0 0 0 0 0 0 0 0 0 0 0 0 0 0 0 0 0 0 0 0 0
0 0 0 0 0 0 0 0 0 0 0 0 0 0 0 0 0 0 0 0 0 0 0 0 0 0 0 0 0 0 0 0 0 0 0 0 0 0 0 0 0 0 0 0
0 0 0 0 0 0 0 0 0 0 0 0 0 0 0 0 0 0 0 0 0 0 0 0 0 0 0 0 0 0 0 0 0 0 0 0 0 0 0 0 0 0 0 0
0 0 0 0 0 0 0 0 0 0 0 0 0 0 0 0 0 0 0 0 0 0 0 0 0 0 0 0 0 0 0 0 0 0 0 0 0 0 0 0 0 0 0 0
0 0 0 0 0 0 0 0 0 0 0 0 0 0 0 0 0 0 0 0 0 0 0 0 0 0 0 0 0 0 0 0 0 0 0 0 0 0 0 0 0 0 0 0
0 0 0 0 0 0 0 0 0 0 0 0 0 0 0 0 0 0 0 0 0 0 0 0 0 0 0 0 0 0 0 0 0 0 0 0 0 0 0 0 0 0 0 0
0 0 0 0 0 0 0 0 0 0 0 0 0 0 0 0 0 0 0 0 0 0 0 0 0 0 0 0 0 0 0 0 0 0 0 0 0 0 0 0 0 0 0 0
0 0 0 0 0 0 0 0 0 0 0 0 0 0 0 0 0 0 0 0 0 0 0 0 0 0 0 0 0 0 0 0 0 0 0 0 0 0 0 0 0 0 0 0
0 0 0 0 0 0 0 0 0 0 0 0 0 0 0 0 0 0 0 0 0 0 0 0 0 0 0 0 0 0 0 0 0 0 0 0 0 0 0 0 0 0 0 0
0 0 0 0 0 0 0 0 0 0 0 0 0 0 0 0 0 0 0 0 0 0 0 0 0 0 0 0 0 0 0 0 0 0 0 0 0 0 0 0 0 0 0 0
0 0 0 0 0 0 0 0 0 0 0 0 0 0 0 0 0 0 0 0 0 0 0 0 0 0 0 0 0 0 0 0 0 0 0 0 0 0 0 0 0 0 0 0
0 0 0 0 0 0 0 0 0 0 0 0 0 0 0 0 0 0 0 0 0 0 0 0 0 0 0 0 0 0 0 0 0 0 0 0 0 0 0 0 0 0 0 0
Wind_Speed
1 3 4 5 5 2 2 2 3 3 2 0 2 3 3 3 4 4 4 4 3 3 3 5 5 5 6 7 6 4 3 1 1 0 1 2 2 2 2 1 1 2 2 2
1 4 4 2 2 2 2 2 2 3 2 0 1 3 2 2 2 2 3 4 3 4 5 7 7 7 6 6 6 5 5 3 2 1 1 1 1 1 1 1 0 1 1 1
3 2 2 2 2 4 4 4 3 3 4 1 1 3 2 2 3 4 4 3 4 4 4 5 6 6 6 6 5 5 5 4 3 3 2 2 2 2 1 1 1 1 1 1
2 2 2 3 4 4 6 4 3 2 0 2 1 2 3 1 2 3 3 3 4 4 4 5 6 6 6 5 4 4 5 5 4 4 3 3 2 1 1 1 1 2 1 1
2 1 3 4 4 3 4 3 3 3 2 2 2 2 4 1 2 3 3 3 3 4 4 5 5 4 5 5 5 4 5 5 5 4 4 3 2 1 2 3 3 2 2 2
2 2 1 2 3 3 2 1 2 1 1 4 4 3 5 2 2 1 2 3 3 4 5 5 5 5 6 6 5 6 6 6 6 5 4 3 3 3 3 3 3 2 2 3
4 3 3 2 1 1 2 4 2 2 1 5 2 3 4 2 1 2 1 2 3 4 4 5 6 6 7 7 6 6 6 7 6 5 5 4 3 3 3 2 2 3 3 3
1 3 2 2 1 2 2 4 5 4 4 3 1 4 3 2 1 1 2 2 3 4 4 5 5 5 6 7 7 6 5 5 5 5 4 4 4 3 2 3 3 2 2 3
0 3 3 3 2 2 3 2 2 3 1 0 3 2 3 2 3 3 2 3 3 3 4 4 5 5 5 6 6 6 5 5 5 5 4 4 4 4 4 4 3 3 3 3
1 2 3 3 3 2 2 3 3 3 2 2 3 3 3 2 1 1 2 2 1 2 4 5 5 5 5 5 5 6 5 5 5 5 4 4 4 4 4 4 5 5 5 5
1 0 3 2 1 1 2 2 2 2 3 3 3 5 3 4 2 1 1 1 1 2 2 3 4 4 4 5 5 5 6 6 6 5 5 5 4 4 4 4 4 4 5 5
1 1 1 3 2 0 1 2 3 3 2 2 2 5 2 1 1 1 1 2 2 2 2 2 3 4 4 5 5 5 5 6 6 5 5 5 5 4 5 4 5 4 5 4
0 2 2 4 4 3 1 0 1 2 2 2 3 6 3 2 2 2 2 2 2 2 2 3 3 3 3 4 4 4 5 5 5 5 5 5 5 5 5 5 5 5 5 5
2 2 3 5 4 2 3 3 2 3 3 3 6 8 6 3 2 2 2 2 1 1 1 2 2 2 3 3 3 3 4 4 4 4 4 4 5 5 5 5 5 5 5 5
3 1 1 2 3 2 4 5 3 4 5 6 6 6 7 4 3 3 2 2 2 2 2 2 2 2 2 3 3 3 3 3 3 3 4 4 4 4 4 5 5 5 5 5
2 1 1 3 3 3 5 6 6 5 5 5 5 7 6 4 2 2 3 2 2 2 3 3 3 3 3 3 3 3 3 3 3 3 3 4 4 4 5 5 5 5 5 5
0 2 1 3 4 4 6 7 6 4 3 5 6 6 2 2 3 3 3 2 3 3 3 3 3 3 4 3 3 3 3 3 3 3 3 4 4 4 5 5 5 5 5 5
2 3 2 0 3 4 8 2 3 4 4 4 4 3 4 4 4 3 2 2 2 3 3 3 3 3 4 3 3 3 3 3 3 3 4 4 4 5 5 5 5 5 5 5
3 4 2 2 1 8 8 4 3 4 5 4 4 4 3 2 2 2 2 1 2 3 3 3 3 3 3 3 3 3 3 3 3 4 4 4 4 5 5 5 5 5 5 5
2 3 3 3 2 7 7 2 1 1 5 4 4 4 3 1 2 5 3 2 3 3 2 3 3 3 3 4 3 3 4 4 4 4 4 4 4 4 5 5 5 5 5 5
1 2 4 4 5 10 8 2 3 3 7 3 5 6 5 5 6 4 2 2 3 3 3 2 2 2 3 3 3 3 4 5 5 5 5 4 4 4 4 4 5 5 5 5
7 5 5 5 5 11 4 5 7 8 2 3 4 5 5 4 3 2 2 3 3 3 2 2 2 3 3 3 3 4 4 5 5 5 5 5 5 4 4 4 4 4 5 5
8 9 7 10 10 6 5 7 5 3 3 3 3 3 3 3 3 3 3 3 3 2 2 3 3 4 4 3 3 4 5 5 5 5 5 5 5 4 4 4 4 4 4 4
6 4 5 7 10 7 6 5 4 3 4 4 3 3 3 4 4 4 3 3 3 3 2 3 3 4 4 4 4 4 5 5 4 5 5 5 4 5 4 4 3 3 3 4
7 5 5 8 8 5 6 7 7 5 3 3 3 3 4 4 4 4 4 3 3 3 3 2 3 4 5 5 5 5 5 4 4 5 4 4 4 4 4 4 3 4 4 5
8 9 9 11 8 7 6 5 5 5 5 5 4 3 3 4 5 4 4 3 3 3 3 3 4 4 5 5 5 5 4 4 4 4 4 3 3 3 3 4 5 7 7 9
Wind_Direction
115 123 192 206 199 187 179 206 252 263 279 343 238 280 315 338 10 13 13 24 22 354 352 25 26 31 38 36 35 33 36 25 70 125 193 195 209 207 192 195 211 218 217 213
110 220 227 201 208 197 212 240 265 304 318 275 245 288 317 9 4 17 12 6 11 9 22 31 33 35 40 43 38 35 24 21 26 313 238 210 194 183 179 164 169 224 224 224
197 248 168 160 201 212 235 218 234 268 333 7 44 322 323 1 23 17 19 15 18 24 27 24 28 29 31 36 34 37 29 24 19 10 30 36 51 43 40 12 299 277 239 235
244 265 188 186 212 215 243 219 228 245 201 264 176 263 281 293 356 2 359 12 20 19 30 33 36 33 26 19 23 34 34 31 28 35 48 64 66 46 334 327 329 1 9 348
272 225 178 209 227 208 236 229 219 225 210 250 246 220 273 275 306 328 342 5 16 18 30 38 35 34 25 17 21 25 34 32 30 41 50 63 55 25 8 11 14 12 3 356
290 302 251 236 234 203 197 72 40 35 124 238 227 204 264 239 227 291 345 1 23 28 35 37 28 29 28 20 22 25 31 30 27 33 40 53 48 32 26 17 8 360 358 354
337 330 334 339 85 102 108 112 72 13 260 249 218 200 249 260 194 179 173 15 27 37 41 34 27 23 21 20 22 28 33 29 25 32 31 26 29 32 26 6 353 353 353 347
1 308 316 338 197 194 190 149 157 188 217 271 288 220 245 347 34 78 97 66 42 33 31 31 26 23 19 15 16 22 28 25 23 28 22 20 24 26 11 2 356 342 329 329
156 279 308 312 307 148 151 181 156 126 55 277 254 281 300 357 36 47 61 51 44 26 22 24 24 26 24 20 16 17 22 22 20 19 19 23 22 23 15 5 359 347 339 338
158 272 304 321 5 11 118 130 105 123 149 244 268 247 241 239 280 357 22 12 4 17 23 25 26 26 26 23 17 19 21 20 15 12 12 14 15 13 10 12 11 2 354 351
109 145 320 10 48 225 84 110 126 143 163 174 250 264 235 207 197 204 294 332 350 6 18 23 20 19 21 20 20 21 19 16 13 8 6 8 8 9 10 11 4 357 353 352
1 109 288 286 289 288 134 151 149 160 221 207 229 270 301 196 118 80 33 8 9 17 24 30 18 16 21 17 13 14 16 15 7 2 4 4 4 7 9 4 356 353 348 347
49 101 42 354 344 4 28 244 168 138 134 182 201 260 318 39 23 15 8 339 345 7 13 21 21 16 9 5 4 7 8 6 3 7 9 7 5 5 2 356 351 350 345 341
81 96 159 194 233 267 288 280 222 163 181 209 226 245 275 297 310 314 312 299 295 332 358 9 6 357 350 346 348 353 353 354 357 3 3 358 354 352 349 349 349 346 344 341
78 109 218 264 281 272 272 271 252 211 203 210 236 239 255 253 250 267 285 303 321 339 340 337 333 326 329 332 334 341 343 345 348 354 353 345 342 348 349 347 346 344 344 340
66 123 4 319 319 306 291 274 251 237 223 226 248 265 263 256 252 276 291 289 277 297 313 317 319 320 320 323 327 330 331 331 339 341 336 337 341 344 344 341 341 340 339 337
53 112 84 289 322 0 285 247 216 210 217 203 227 242 259 275 264 256 263 259 265 289 298 301 302 301 307 308 313 312 308 320 329 325 327 334 336 334 334 337 339 335 332 331
157 125 135 319 31 238 244 264 198 212 236 222 223 236 230 251 262 256 234 235 267 279 284 288 292 294 301 305 307 306 314 322 320 319 323 328 330 327 327 329 327 326 324 321
168 146 130 131 241 276 287 267 208 205 251 231 220 239 254 296 337 292 269 250 251 263 276 281 282 292 304 308 313 320 319 316 314 313 315 320 321 319 321 320 320 319 318 317
119 132 139 148 192 244 252 235 219 129 266 235 203 210 216 169 276 269 276 277 276 287 297 302 316 322 320 318 324 325 317 316 309 307 306 310 312 308 308 309 312 313 311 311
133 154 187 197 230 259 253 237 114 177 249 222 199 204 205 216 229 242 264 270 264 279 293 310 320 312 306 317 327 317 314 308 308 315 315 311 308 303 301 304 308 309 309 310
185 182 197 177 217 254 214 155 189 223 235 199 210 214 220 237 249 251 261 272 281 292 302 312 309 304 311 325 329 313 307 309 318 320 314 309 307 306 307 306 307 310 310 309
209 200 193 198 219 240 189 203 219 201 211 219 210 224 206 226 240 254 267 272 283 289 304 316 309 307 318 331 329 306 309 320 320 314 307 306 308 309 309 303 304 309 310 303
245 211 213 248 255 249 241 244 248 227 221 228 219 210 203 226 239 257 260 272 284 297 303 312 313 311 314 322 320 306 312 319 311 302 303 306 308 309 310 305 303 301 297 296
223 197 217 251 267 279 258 237 236 234 234 231 219 214 213 216 239 244 253 263 272 288 302 304 296 295 302 315 315 315 317 319 310 303 303 306 304 305 307 305 299 297 288 288
200 193 199 231 227 212 238 227 209 210 221 215 212 233 236 222 234 245 252 257 264 274 292 295 296 297 301 308 307 310 312 309 302 301 304 305 305 306 307 307 308 304 303 309